DW9837 Weather Reports


Display with metric or nautical units.
time (UTC)temp
F
wind
direction
speed
MPH
gust
MPH
rain 1hr
in
rain 24hr
in
rain mn
in
humidity
%
barometer
mb
20260905024521 68 297 0.0 0.0 0.00 0.38 0.38 80 1009.5
20260905023022 69 296 0.0 1.0 0.00 0.38 0.38 79 1009.6
20260905021523 69 296 0.0 1.0 0.00 0.38 0.38 78 1009.5
20260905020016 70 151 0.0 1.0 0.00 0.38 0.38 77 1009.5
20260905014521 70 151 0.0 0.0 0.00 0.38 0.38 77 1009.4
20260905013014 71 151 0.0 1.0 0.00 0.38 0.38 75 1009.6
20260905011513 71 331 0.0 0.0 0.00 0.38 0.38 76 1009.7
20260905010016 72 265 0.0 1.0 0.00 0.38 0.38 75 1009.8
20260905004516 72 298 0.0 1.0 0.00 0.38 0.38 74 1010.0
20260905003018 73 274 0.0 0.0 0.00 0.38 0.38 72 1010.0
20260905001531 73 267 0.0 3.0 0.00 0.38 0.38 72 1009.8
20260905000007 74 273 0.0 1.0 0.00 0.38 0.38 71 1009.6
20260904234514 74 300 0.0 1.0 0.00 0.38 0.38 70 1009.3
20260904233014 75 317 0.0 1.0 0.00 0.38 0.38 69 1009.3
20260904231505 76 318 0.0 1.0 0.00 0.38 0.38 67 1009.0
20260904230004 77 320 0.0 1.0 0.00 0.38 0.38 65 1008.9
20260904224506 78 290 0.0 1.0 0.00 0.38 0.38 62 1009.0
20260904223003 79 173 0.0 2.0 0.00 0.38 0.38 61 1008.9
20260904221503 80 189 0.0 2.0 0.00 0.38 0.38 58 1008.9
20260904220003 81 116 0.0 3.0 0.00 0.38 0.38 54 1008.8
20260904214502 81 49 0.0 6.0 0.00 0.38 0.38 54 1008.7
20260904213005 82 286 0.0 3.0 0.00 0.38 0.38 52 1008.8
20260904211500 84 2 1.0 4.0 0.00 0.38 0.38 50 1008.7
20260904210116 85 301 1.0 3.0 0.00 0.38 0.38 50 1008.8
20260904204602 84 22 1.0 3.0 0.00 0.38 0.38 51 1008.9
20260904203104 85 139 1.0 3.0 0.00 0.38 0.38 50 1008.9
20260904201559 85 76 0.0 7.0 0.00 0.38 0.38 51 1009.1
20260904200100 85 305 1.0 3.0 0.00 0.38 0.38 51 1009.1
20260904194558 86 255 1.0 7.0 0.00 0.38 0.38 49 1009.2
20260904193113 85 317 1.0 6.0 0.00 0.38 0.38 50 1009.0
20260904191556 86 315 0.0 3.0 0.00 0.38 0.38 52 1009.1
20260904190052 85 12 1.0 5.0 0.00 0.38 0.38 52 1009.2
20260904184549 84 10 1.0 6.0 0.00 0.38 0.38 51 1009.1
20260904183047 84 8 1.0 4.0 0.00 0.38 0.38 51 1008.9
20260904181545 83 63 0.0 3.0 0.00 0.38 0.38 55 1008.8
20260904180047 83 175 0.0 4.0 0.00 0.38 0.38 56 1008.8
20260904174544 84 36 0.0 3.0 0.00 0.38 0.38 54 1009.0
20260904173051 84 15 0.0 9.0 0.00 0.38 0.38 54 1009.1
20260904171540 85 11 1.0 5.0 0.00 0.38 0.38 55 1009.2
20260904170042 83 28 2.0 5.0 0.00 0.38 0.38 54 1009.6
20260904164536 83 110 1.0 7.0 0.00 0.38 0.38 56 1009.4
20260904163035 83 102 1.0 4.0 0.00 0.38 0.38 57 1009.3
20260904161534 83 282 1.0 5.0 0.00 0.38 0.38 57 1009.4
20260904160031 82 325 1.0 5.0 0.00 0.38 0.38 60 1009.6
20260904154528 82 346 2.0 7.0 0.00 0.38 0.38 58 1009.7
20260904153027 82 2 1.0 7.0 0.00 0.38 0.38 63 1009.7
20260904151526 81 278 1.0 4.0 0.00 0.38 0.38 62 1009.8
20260904150033 81 13 0.0 5.0 0.00 0.38 0.38 65 1009.9
20260904144522 80 104 1.0 4.0 0.00 0.38 0.38 70 1010.0
20260904143018 79 291 1.0 5.0 0.00 0.38 0.38 72 1009.9
20260904141516 78 14 1.0 4.0 0.00 0.38 0.38 75 1009.9
20260904140012 78 38 0.0 4.0 0.00 0.38 0.38 77 1010.1
20260904134508 78 255 0.0 4.0 0.00 0.38 0.38 85 1010.0
20260904134208 78 215 0.0 4.0 0.00 0.38 0.38 87 1010.1
20260904133141 77 19 0.0 1.0 0.00 0.38 0.38 87 1010.1
20260904133015 76 19 0.0 1.0 0.00 0.38 0.38 87 1010.0
20260904132213 76 277 1.0 2.0 0.00 0.38 0.38 88 1010.2
20260904131552 75 284 0.0 3.0 0.00 0.38 0.38 89 1010.2
20260904131151 76 260 0.0 3.0 0.00 0.38 0.38 90 1010.3
20260904130044 74 274 0.0 2.0 0.00 0.38 0.38 92 1010.3
20260904124539 73 280 0.0 1.0 0.00 0.38 0.38 95 1010.3
20260904123035 72 98 0.0 1.0 0.00 0.38 0.38 95 1010.3
20260904121531 71 103 0.0 1.0 0.00 0.38 0.38 96 1010.4
20260904120030 71 103 0.0 1.0 0.00 0.38 0.38 96 1010.2
20260904114530 71 104 0.0 2.0 0.00 0.38 0.38 95 1010.2
20260904113030 70 136 0.0 1.0 0.00 0.38 0.38 96 1010.1
20260904111528 71 173 0.0 1.0 0.00 0.38 0.38 96 1009.9
20260904110028 71 161 0.0 1.0 0.00 0.38 0.38 96 1010.0
20260904104527 71 200 0.0 2.0 0.03 0.38 0.38 96 1009.9
20260904103028 71 310 0.0 1.0 0.11 0.38 0.38 96 1009.9
20260904101526 71 310 0.0 1.0 0.31 0.38 0.38 95 1010.0
20260904100025 71 30 0.0 1.0 0.36 0.38 0.38 95 1009.7
20260904094525 71 91 0.0 1.0 0.35 0.35 0.35 95 1008.8
20260904093023 72 188 1.0 2.0 0.26 0.26 0.26 95 1009.6
20260904091536 72 101 0.0 0.0 0.06 0.06 0.06 94 1009.8
20260904090018 72 101 0.0 1.0 0.02 0.02 0.02 94 1009.8
20260904084518 72 182 0.0 0.0 0.00 0.14 0.00 94 1009.6
20260904083026 71 181 0.0 0.0 0.00 0.14 0.00 94 1009.4
20260904081544 71 61 0.0 1.0 0.00 0.14 0.00 94 1009.6
20260904080041 71 295 0.0 3.0 0.00 0.14 0.00 94 1009.8
20260904074558 71 248 0.0 1.0 0.00 0.14 0.00 94 1009.2
20260904073040 71 300 0.0 0.0 0.00 0.14 0.00 95 1009.1
20260904071553 71 300 0.0 1.0 0.00 0.14 0.00 95 1009.2
20260904070035 71 300 0.0 0.0 0.00 0.14 0.00 95 1009.6
20260904064535 71 300 0.0 0.0 0.00 0.14 0.00 95 1009.7
20260904063043 71 300 0.0 0.0 0.00 0.14 0.00 94 1009.9
20260904061530 71 300 0.0 0.0 0.00 0.14 0.00 95 1010.1
20260904060029 71 300 0.0 0.0 0.00 0.14 0.00 94 1010.4
20260904054534 71 300 0.0 0.0 0.00 0.14 0.00 94 1010.3
20260904053026 71 300 0.0 0.0 0.00 0.14 0.00 94 1010.6
20260904051522 71 300 0.0 0.0 0.00 0.14 0.00 94 1010.9
20260904050020 71 300 0.0 0.0 0.00 0.14 0.00 94 1011.1
20260904044519 71 300 0.0 0.0 0.00 0.14 0.00 94 1011.0
20260904043017 71 300 0.0 0.0 0.00 0.14 0.00 93 1011.2
20260904041523 71 300 0.0 0.0 0.00 0.14 0.00 93 1011.3
20260904040011 71 300 0.0 1.0 0.00 0.14 0.00 93 1011.4
20260904034511 71 300 0.0 0.0 0.00 0.14 0.14 93 1011.5
20260904033010 71 299 0.0 0.0 0.00 0.14 0.14 92 1011.7
20260904031509 71 299 0.0 0.0 0.00 0.14 0.14 92 1011.4
20260904030009 71 299 0.0 0.0 0.00 0.14 0.14 92 1011.5